EST,Max TemperatureF,Mean TemperatureF,Min TemperatureF,Max Dew PointF,MeanDew PointF,Min DewpointF,Max Humidity, Mean Humidity, Min Humidity, Max Sea Level PressureIn, Mean Sea Level PressureIn, Min Sea Level PressureIn, Max VisibilityMiles, Mean VisibilityMiles, Min VisibilityMiles, Max Wind SpeedMPH, Mean Wind SpeedMPH, Max Gust SpeedMPH,PrecipitationIn, CloudCover, Events, WindDirDegrees
2011-11-1,69,58,46,48,45,41,100,69,37,30.28,30.22,30.17,10,10,1,16,4,22,0.00,0,,58
2011-11-2,73,58,42,57,50,43,100,74,57,30.33,30.28,30.23,10,10,7,14,3,20,0.00,3,,75
2011-11-3,80,65,50,63,55,48,100,79,45,30.25,30.14,29.95,10,9,5,13,1,16,0.00,3,,203
2011-11-4,69,60,51,63,49,45,94,71,52,29.93,29.89,29.84,10,10,3,17,10,24,0.00,6,,305
2011-11-5,64,56,48,48,45,41,93,65,45,30.22,30.13,30.03,10,10,10,13,6,22,0.00,0,,42
2011-11-6,73,62,50,59,50,45,82,73,57,30.34,30.28,30.24,10,10,10,14,5,18,0.00,5,,47
2011-11-7,78,66,55,61,57,54,94,74,50,30.31,30.26,30.20,10,10,10,14,3,20,0.00,4,,64
2011-11-8,80,68,57,61,59,54,94,74,48,30.21,30.17,30.12,10,10,10,12,2,,0.00,5,,74
2011-11-9,77,64,51,63,55,52,100,78,44,30.13,30.07,29.98,10,6,0,8,1,,0.00,2,,53
2011-11-10,73,62,50,64,54,41,100,80,48,29.98,29.94,29.88,10,10,5,16,3,22,0.00,2,,305
2011-11-11,64,52,39,37,31,27,87,50,24,30.24,30.16,30.06,10,10,10,14,4,18,0.00,0,,339
2011-11-12,71,52,32,45,34,28,100,63,25,30.35,30.29,30.25,10,10,10,4,0,,0.00,0,,105
2011-11-13,78,60,42,57,50,43,100,74,42,30.28,30.23,30.15,10,10,5,12,1,18,0.00,0,,184
2011-11-14,84,66,48,63,56,48,100,74,37,30.19,30.13,30.05,10,8,0,9,1,,0.00,0,,204
2011-11-15,87,76,64,73,68,63,100,84,55,30.08,30.02,29.95,10,7,0,9,1,,0.00,4,,228
2011-11-16,87,76,66,73,70,66,100,83,55,30.00,29.95,29.86,10,8,0,20,5,24,0.00,6,,212
2011-11-17,75,68,60,72,61,36,100,73,28,30.16,30.00,29.88,10,10,7,18,9,24,0.00,3,,284
2011-11-18,64,55,46,46,40,32,76,61,50,30.40,30.33,30.26,10,10,10,16,8,24,0.00,2,,62
2011-11-19,78,62,46,63,53,43,93,77,54,30.34,30.29,30.24,10,10,10,13,2,16,0.00,3,,99
2011-11-20,84,70,55,66,62,55,100,80,51,30.33,30.28,30.24,10,8,0,8,0,,0.00,2,,152
2011-11-21,84,73,62,66,64,63,100,79,51,30.31,30.24,30.17,10,8,4,0,0,,0.00,0,,-1
2011-11-22,84,70,55,72,65,55,100,85,62,30.19,30.13,30.04,10,8,1,10,2,18,0.00,3,,186
2011-11-23,78,72,64,70,64,36,100,78,30,30.06,30.00,29.96,10,10,5,18,7,21,0.00,5,,273
2011-11-24,69,58,46,48,44,39,88,65,38,30.32,30.26,30.16,10,10,10,16,4,23,0.00,0,,48
2011-11-25,75,58,41,59,50,39,100,80,53,30.36,30.30,30.23,10,10,10,12,1,16,0.00,1,,102
2011-11-26,80,68,55,61,59,55,100,79,47,30.29,30.23,30.18,10,10,4,14,2,17,0.00,5,,117
2011-11-27,80,68,57,63,59,55,100,72,45,30.17,30.09,29.98,10,10,10,16,3,25,0.00,5,,154
2011-11-28,75,63,51,68,60,52,100,90,73,29.94,29.87,29.82,10,8,2,17,7,30,0.00,5,,185
2011-11-29,57,50,42,52,45,41,100,83,59,29.98,29.94,29.90,10,10,2,16,3,23,0.00,6,,261
2011-11-30,59,48,37,43,39,36,100,77,55,30.13,30.06,30.00,10,10,10,14,2,18,0.00,0,,315